(174244) = 2002 RM154 = 2005 JQ7

Discovered at Haleakala on 2002-09-10 by NEAT.

Orbit

Orbit type: Main Belt

Note: WebGL enabled browser required.

epoch2023-09-13.0
epoch JD2460200.5
perihelion date2022-08-18.11121
perihelion JD2459809.61121
argument of perihelion (°)139.03883
ascending node (°)201.40983
inclination (°)2.43610
eccentricity0.1615463
perihelion distance (AU)2.1133649
Tisserand w.r.t. Jupiter3.4
ΔV w.r.t. Earth (km/sec)9.1
semimajor axis (AU)2.5205506
mean anomaly (°)96.27509
mean daily motion (°/day)0.24629790
aphelion distance (AU)2.928
period (years)4.0
P-vector [x]0.94212575
P-vector [y]-0.31761429
P-vector [z]-0.10733235
Q-vector [x]0.33490047
Q-vector [y]0.87676680
Q-vector [z]0.34514005
absolute magnitude17.73
phase slope0.15
uncertainty0
referenceMPEC 2024-A141
observations used414
oppositions18
arc length (days)11222
first opposition used1993
last opposition used2024
residual rms (arc-secs)0.68
perturbers coarse indicatorM-v
perturbers precise indicator003Ek
first observation date used1993-04-21.0
last observation date used2024-01-10.0
computer nameMPCLINUX
JD of orbit computation2456966.915400
perihelion JD uncertainty (days)4.5955E-05
argument of perihelion uncertainty (°)8.3089E-05
ascending node uncertainty (°)8.1790E-05
inclination uncertainty (°)5.6848E-06
eccentricity uncertainty 6.7310E-08
perihelion distance uncertainty (AU)1.6998E-07
Minimum Orbit Intersection Distances (in AU)
for orbit epoch: 2460200.5, reference: E2024-AE1
Mercury1.72139
Venus1.38992
Earth1.10498
Mars0.73712
Jupiter2.45291
Saturn6.31011
Uranus15.5224
Neptune27.4349

Observations

416 total observations over interval: 1993 04 21.24105 – 2024 01 10.75652
These data are available for download (format description).

Date (UT) J2000 RA J2000 Dec Magn Location Ref
1993 04 21.24105 13 41 13.90 -10 00 35.1 21.6 V 691 – Steward Observatory, Kitt Peak-Spacewatch MPS 175700
1993 04 21.30528 13 41 10.32 -10 00 12.3   691 – Steward Observatory, Kitt Peak-Spacewatch MPS 175700
1994 10 12.12315 23 20 10.35 -02 46 52.1   691 – Steward Observatory, Kitt Peak-Spacewatch MPS 175700
1994 10 12.14460 23 20 09.85 -02 46 57.7 20.5 V 691 – Steward Observatory, Kitt Peak-Spacewatch MPS 175700
1994 10 12.16597 23 20 09.27 -02 47 03.4   691 – Steward Observatory, Kitt Peak-Spacewatch MPS 175700
2002 09 10.45397 23 38 58.19 +00 13 53.2 20.6   608 – Haleakala-AMOS MPS 61787
2002 09 10.53890 23 38 53.98 +00 13 21.0 20.3   608 – Haleakala-AMOS MPS 61787
2002 09 10.54990 23 38 53.46 +00 13 16.3 20.7   608 – Haleakala-AMOS MPS 61787
2002 09 14.34791 23 35 54.60 -00 11 44.8 19.2   644 – Palomar Mountain/NEAT MPS 61787
2002 09 14.36882 23 35 53.57 -00 11 52.9 19.0   644 – Palomar Mountain/NEAT MPS 61787
2002 09 14.39001 23 35 52.50 -00 12 01.3 19.1   644 – Palomar Mountain/NEAT MPS 61787
2002 09 15.33322 23 35 07.79 -00 18 22.4 19.0 R 699 – Lowell Observatory-LONEOS MPS 61787
2002 09 15.34361 23 35 07.32 -00 18 25.9   699 – Lowell Observatory-LONEOS MPS 61787
2002 09 15.35400 23 35 06.73 -00 18 28.9   699 – Lowell Observatory-LONEOS MPS 61787
2002 09 15.36438 23 35 06.22 -00 18 34.0   699 – Lowell Observatory-LONEOS MPS 61787
2002 09 18.21414 23 32 51.39 -00 37 49.2 19.7   644 – Palomar Mountain/NEAT MPS 63585
2002 09 18.28966 23 32 47.64 -00 38 20.0 19.4   644 – Palomar Mountain/NEAT MPS 63585
2002 09 18.35244 23 32 44.51 -00 38 45.7 20.0   644 – Palomar Mountain/NEAT MPS 63585
2005 04 02.40794 13 54 06.27 -11 30 47.2 21.2 R G96 – Mt. Lemmon Survey MPS 134802
2005 04 02.41324 13 54 06.05 -11 30 45.7 20.6 R G96 – Mt. Lemmon Survey MPS 134802
2005 04 02.41855 13 54 05.82 -11 30 44.3 20.9 R G96 – Mt. Lemmon Survey MPS 134802
2005 04 02.42384 13 54 05.60 -11 30 42.6 21.4 R G96 – Mt. Lemmon Survey MPS 134802
2005 05 04.33365 13 26 56.61 -08 28 49.3 21.4 r 568 – Maunakea MPS 134065
2005 05 04.36160 13 26 55.26 -08 28 40.3 21.5 r 568 – Maunakea MPS 134065
2005 05 04.40626 13 26 53.11 -08 28 26.0 21.6 r 568 – Maunakea MPS 134065
2005 05 05.37871 13 26 08.76 -08 23 18.9 21.5 r 568 – Maunakea MPS 134065
2006 08 28.33360 23 41 43.22 +00 51 25.0 21.2 V 703 – Catalina Sky Survey MPS 176936
2006 08 28.34163 23 41 42.93 +00 51 24.3 21.2 V 703 – Catalina Sky Survey MPS 176936
2006 08 28.34970 23 41 42.57 +00 51 19.8 20.0 V 703 – Catalina Sky Survey MPS 176936
2006 08 28.35774 23 41 42.21 +00 51 18.6 21.0 V 703 – Catalina Sky Survey MPS 176936
2006 09 16.26744 23 27 46.82 -01 03 04.2 19.5 R 699 – Lowell Observatory-LONEOS MPS 179209
2006 09 16.28570 23 27 45.69 -01 03 09.4   699 – Lowell Observatory-LONEOS MPS 179209
2006 09 16.30395 23 27 44.79 -01 03 18.7   699 – Lowell Observatory-LONEOS MPS 179209
2006 09 16.32220 23 27 44.08 -01 03 24.0   699 – Lowell Observatory-LONEOS MPS 179209
2006 09 19.22166 23 25 27.76 -01 23 00.3 19.6 V 703 – Catalina Sky Survey MPS 179209
2006 09 19.23293 23 25 27.26 -01 23 05.1 20.1 V 703 – Catalina Sky Survey MPS 179209
2006 09 19.24426 23 25 26.61 -01 23 09.6 19.4 V 703 – Catalina Sky Survey MPS 179209
2006 09 19.25554 23 25 26.11 -01 23 13.9 19.7 V 703 – Catalina Sky Survey MPS 179209
2006 09 28.21776 23 18 54.25 -02 21 48.9 19.9 V G96 – Mt. Lemmon Survey MPS 182541
2006 09 28.22548 23 18 53.89 -02 21 51.8 20.0 V G96 – Mt. Lemmon Survey MPS 182541
2006 09 28.23322 23 18 53.56 -02 21 54.5 20.1 V G96 – Mt. Lemmon Survey MPS 182541
2006 09 28.24098 23 18 53.24 -02 21 57.4 19.9 V G96 – Mt. Lemmon Survey MPS 182541
2006 10 19.20031 23 10 07.71 -03 59 51.5 20.3 V G96 – Mt. Lemmon Survey MPS 182844
2006 10 19.21306 23 10 07.57 -03 59 54.3 20.8 V G96 – Mt. Lemmon Survey MPS 182844
2006 10 19.21973 23 10 07.50 -03 59 55.4 20.5 V G96 – Mt. Lemmon Survey MPS 182844
2006 10 19.22637 23 10 07.42 -03 59 56.1 20.4 V G96 – Mt. Lemmon Survey MPS 182844
2006 11 21.09413 23 21 23.54 -03 44 26.8 22.0 V G96 – Mt. Lemmon Survey MPS 188520
2006 11 21.10323 23 21 23.97 -03 44 24.8 21.7 V G96 – Mt. Lemmon Survey MPS 188520
2006 11 21.11214 23 21 24.37 -03 44 22.9 21.8 V G96 – Mt. Lemmon Survey MPS 188520
2006 11 21.12119 23 21 24.73 -03 44 20.9 21.4 V G96 – Mt. Lemmon Survey MPS 188521
2008 01 10.36813 08 32 22.09 +15 05 43.7 22.8 V G96 – Mt. Lemmon Survey MPS 233334
2008 01 10.37531 08 32 21.62 +15 05 45.0 22.0 V G96 – Mt. Lemmon Survey MPS 233334
2008 01 10.38244 08 32 21.22 +15 05 46.7 22.0 V G96 – Mt. Lemmon Survey MPS 233334
2008 01 10.38960 08 32 20.83 +15 05 47.8 21.5 V G96 – Mt. Lemmon Survey MPS 233334
2008 01 12.32293 08 30 34.20 +15 11 42.8 21.9 V G96 – Mt. Lemmon Survey MPS 234162
2008 01 12.32347 08 30 34.16 +15 11 42.7 21.6 V G96 – Mt. Lemmon Survey MPS 234162
2008 01 12.33034 08 30 33.76 +15 11 43.8 21.8 V G96 – Mt. Lemmon Survey MPS 234162
2008 01 12.33088 08 30 33.73 +15 11 44.4 21.5 V G96 – Mt. Lemmon Survey MPS 234162
2008 01 12.33767 08 30 33.30 +15 11 45.0 21.0 V G96 – Mt. Lemmon Survey MPS 234162
2008 01 12.33822 08 30 33.30 +15 11 45.1 21.3 V G96 – Mt. Lemmon Survey MPS 234162
2008 01 12.34502 08 30 32.90 +15 11 46.3 21.2 V G96 – Mt. Lemmon Survey MPS 234162
2008 01 12.34556 08 30 32.83 +15 11 47.4 21.2 V G96 – Mt. Lemmon Survey MPS 234162
2008 02 10.19626 08 03 04.53 +16 51 03.4 21.6 V G96 – Mt. Lemmon Survey MPS 239118
2008 02 10.20536 08 03 04.06 +16 51 04.9 21.7 V G96 – Mt. Lemmon Survey MPS 239118
2008 02 10.21453 08 03 03.60 +16 51 06.6 21.7 V G96 – Mt. Lemmon Survey MPS 239118
2008 02 10.22360 08 03 03.16 +16 51 08.3 22.0 V G96 – Mt. Lemmon Survey MPS 239118
2009 04 20.25085 13 36 59.61 -09 40 17.2 21.2 V G96 – Mt. Lemmon Survey MPS 285538
2009 04 20.25771 13 36 59.25 -09 40 14.0 21.2 V G96 – Mt. Lemmon Survey MPS 285538
2009 04 20.26455 13 36 58.86 -09 40 12.3 21.1 V G96 – Mt. Lemmon Survey MPS 285538
2009 04 20.27135 13 36 58.46 -09 40 09.4 20.7 V G96 – Mt. Lemmon Survey MPS 285538
2010 08 13.33692 23 45 37.11 +01 27 50.8   691 – Steward Observatory, Kitt Peak-Spacewatch MPS 344680
2010 08 13.35470 23 45 36.81 +01 27 49.1   691 – Steward Observatory, Kitt Peak-Spacewatch MPS 344680
2010 08 13.37249 23 45 36.50 +01 27 47.0   691 – Steward Observatory, Kitt Peak-Spacewatch MPS 344680
2010 09 04.34801 23 34 10.48 -00 02 31.7 19.1 V G96 – Mt. Lemmon Survey MPS 347761
2010 09 04.35444 23 34 10.20 -00 02 33.9 19.7 V G96 – Mt. Lemmon Survey MPS 347761
2010 09 04.36085 23 34 09.91 -00 02 36.2 18.9 V G96 – Mt. Lemmon Survey MPS 347761
2010 09 04.36729 23 34 09.58 -00 02 38.6 19.3 V G96 – Mt. Lemmon Survey MPS 347761
2010 09 06.23849 23 32 46.27 -00 14 00.3 20.6 R I41 – Palomar Mountain--ZTF MPS 1467225
2010 09 06.28322 23 32 44.13 -00 14 17.1 20.7 R I41 – Palomar Mountain--ZTF MPS 1467225
2010 09 06.508027 23 32 33.553 -00 15 38.69 20.28 z F51 – Pan-STARRS 1, Haleakala MPS 365026
2010 09 06.510968 23 32 33.428 -00 15 39.73 20.37 z F51 – Pan-STARRS 1, Haleakala MPS 365026
2010 09 06.516907 23 32 33.171 -00 15 41.56 20.43 z F51 – Pan-STARRS 1, Haleakala MPS 365026
2010 09 06.519829 23 32 32.981 -00 15 43.07 20.30 z F51 – Pan-STARRS 1, Haleakala MPS 365026
2010 09 06.522761 23 32 32.860 -00 15 44.11 20.37 z F51 – Pan-STARRS 1, Haleakala MPS 365026
2010 09 06.525767 23 32 32.720 -00 15 45.27 20.36 z F51 – Pan-STARRS 1, Haleakala MPS 365026
2010 09 07.564109 23 31 45.076 -00 22 14.65 20.06 r F51 – Pan-STARRS 1, Haleakala MPS 365026
2010 09 07.565555 23 31 44.980 -00 22 15.18 20.02 r F51 – Pan-STARRS 1, Haleakala MPS 365026
2010 09 07.566998 23 31 44.909 -00 22 15.67 20.00 r F51 – Pan-STARRS 1, Haleakala MPS 365026
2010 09 07.569979 23 31 44.773 -00 22 16.82 20.08 r F51 – Pan-STARRS 1, Haleakala MPS 365026
2010 09 07.571427 23 31 44.702 -00 22 17.39 20.03 r F51 – Pan-STARRS 1, Haleakala MPS 365026
2010 09 10.520808 23 29 27.103 -00 41 14.35 19.62 r F51 – Pan-STARRS 1, Haleakala MPS 365026
2010 09 10.523794 23 29 26.950 -00 41 15.35 19.65 r F51 – Pan-STARRS 1, Haleakala MPS 365026
2010 09 10.526687 23 29 26.817 -00 41 16.59 19.49 r F51 – Pan-STARRS 1, Haleakala MPS 365026
2010 09 10.528228 23 29 26.733 -00 41 17.24 19.49 r F51 – Pan-STARRS 1, Haleakala MPS 365026
